Location: アルンシュタイン
(50.0000°N, 10.0000°E)
Time: 17:36:40
(UTC+02:00)

SR - Visible Passes

Search period start: 11 September 2024 00:00
Search period end: 21 September 2024 00:00
Orbit: 579 x 855 km, 66.7° (Epoch: 10 September)

Date Brightness Start Highest point End Pass type
(mag) Time Alt. Az. Time Alt. Az. Time Alt. Az.
11 Sep ? 01:02:08 10° NW 01:02:17 11° NW 01:02:17 11° NW visible
11 Sep ? 20:47:02 10° N 20:48:06 11° NNE 20:49:10 10° NNE visible
11 Sep ? 22:27:29 10° NNW 22:31:23 28° NE 22:31:27 28° NE visible
12 Sep ? 00:08:57 10° NW 00:10:37 22° NW 00:10:37 22° NW visible
12 Sep ? 21:34:57 10° NNW 21:38:05 18° NNE 21:39:48 15° ENE visible
12 Sep ? 23:16:03 10° NNW 23:18:58 39° NNW 23:18:58 39° NNW visible
13 Sep ? 20:42:31 10° N 20:44:35 13° NNE 20:46:44 10° NE visible
13 Sep ? 22:23:19 10° NNW 22:27:20 39° NE 22:27:20 39° NE visible
14 Sep ? 00:05:08 10° NW 00:06:30 18° WNW 00:06:30 18° WNW visible
14 Sep ? 21:30:42 10° NNW 21:34:23 24° NE 21:35:43 21° ENE visible
14 Sep ? 23:12:02 10° NW 23:14:53 38° NW 23:14:53 38° NW visible
15 Sep ? 20:38:09 10° NNW 20:40:59 16° NNE 20:43:55 10° ENE visible
15 Sep ? 22:19:10 10° NNW 22:23:17 55° NNE 22:23:17 55° NNE visible
16 Sep ? 00:01:27 10° WNW 00:02:27 15° WNW 00:02:27 15° WNW visible
16 Sep ? 21:26:26 10° NNW 21:30:34 33° NE 21:31:42 29° ENE visible
16 Sep ? 23:08:03 10° NW 23:10:52 33° WNW 23:10:52 33° WNW visible
17 Sep ? 20:33:48 10° NNW 20:37:15 21° NNE 20:40:08 13° ENE visible
17 Sep ? 22:15:02 10° NW 22:19:19 77° NNW 22:19:19 77° NNW visible
17 Sep ? 23:58:06 10° WNW 23:58:29 11° WNW 23:58:29 11° WNW visible
18 Sep ? 21:22:10 10° NNW 21:26:36 47° NE 21:27:47 39° E visible
18 Sep ? 23:04:11 10° NW 23:06:57 26° W 23:06:57 26° W visible
19 Sep ? 20:29:26 10° NNW 20:33:23 28° NE 20:36:16 16° E visible
19 Sep ? 22:10:54 10° NW 22:15:27 61° WSW 22:15:27 61° WSW visible
20 Sep ? 21:17:54 10° NNW 21:22:31 71° NE 21:24:00 44° ESE visible
20 Sep ? 23:00:30 10° WNW 23:03:11 19° W 23:03:11 19° W visible
